Weather History for State College, PA

Change the Weather History Date:

Monday, May 14, 2012

  Actual Average Record
Temperature  
Mean Temperature 56 °F -  
Max Temperature 59 °F 69 °F 85 °F (1940)
Min Temperature 53 °F 46 °F 30 °F (2013)
Degree Days  
Heating Degree Days 9    
Growing Degree Days 6 (Base 50)    
Moisture  
Dew Point 55 °F    
Average Humidity 96    
Maximum Humidity 100    
Minimum Humidity 94    
Precipitation  
Precipitation 0.41 in - - ()
Sea Level Pressure  
Sea Level Pressure 30.08 in    
Wind  
Wind Speed 1 mph (NNE)    
Max Wind Speed 6 mph    
Max Gust Speed -    
Visibility 3 miles    
Events Rain    
Averages and records for this station are not official NWS values.
T = Trace of Precipitation, MM = Missing Value Source: NWS Daily Summary

Daily Weather History Graph

Daily Weather History Graph

Search for Another Location

Airport:

Trip Planner

Search our weather history database for the weather conditions in past years. The results will help you decide how hot, cold, wet, or windy it might be!

Date:

Astronomy

May. 14, 2012 Rise Set
Actual Time 5:54 AM EDT 8:21 PM EDT
Civil Twilight 5:23 AM EDT 8:52 PM EDT
Nautical Twilight 4:44 AM EDT 9:31 PM EDT
Astronomical Twilight 4:01 AM EDT 10:14 PM EDT
Moon 2:30 AM EDT (5/14) 2:38 PM EDT (5/14)
Length of Visible Light 15h 29m
Length of Day
14h 27m
Waning Crescent, 33% of the Moon is Illuminated
May 14
Waning Crescent
May 20
New
May 28
First Quarter
Jun 4
Full
Jun 11
Last Quarter

Hourly Weather History & Observations

Time (EDT) Temp. Dew Point Humidity Pressure Visibility Wind Dir Wind Speed Gust Speed Precip Events Conditions
12:15 AM 55.4 °F 53.6 °F 94% 30.15 in 3.0 mi WNW 3.5 mph - 0.06 in Rain Heavy Rain
12:35 AM 55.4 °F 53.6 °F 94% 30.14 in 3.0 mi Calm Calm - 0.11 in Rain Heavy Rain
12:55 AM 53.6 °F 53.6 °F 100% 30.13 in 3.0 mi NE 4.6 mph - N/A Rain Light Rain
1:15 AM 53.6 °F 53.6 °F 100% 30.13 in 4.0 mi Calm Calm - N/A   Overcast
1:35 AM 53.6 °F 53.6 °F 100% 30.12 in 2.5 mi Calm Calm - N/A Rain Rain
1:55 AM 55.4 °F 53.6 °F 94% 30.12 in 3.0 mi Calm Calm - N/A Rain Light Rain
2:15 AM 53.6 °F 53.6 °F 100% 30.12 in 2.0 mi Calm Calm - 0.04 in Rain Rain
2:35 AM 55.4 °F 53.6 °F 94% 30.11 in 2.5 mi Calm Calm - 0.07 in Rain Rain
3:15 AM 53.6 °F 53.6 °F 100% 30.12 in 2.5 mi Calm Calm - 0.05 in Rain Rain
3:35 AM 53.6 °F 53.6 °F 100% 30.11 in 5.0 mi Calm Calm - 0.06 in   Drizzle
3:55 AM 53.6 °F 51.8 °F 94% 30.11 in 2.0 mi Calm Calm - N/A   Drizzle
4:15 AM 53.6 °F 51.8 °F 94% 30.11 in 2.5 mi Calm Calm - N/A   Light Drizzle
4:55 AM 53.6 °F 53.6 °F 100% 30.10 in 4.0 mi NE 3.5 mph - N/A   Overcast
5:15 AM 53.6 °F 53.6 °F 100% 30.10 in 4.0 mi Calm Calm - N/A   Overcast
5:35 AM 53.6 °F 53.6 °F 100% 30.11 in 4.0 mi Calm Calm - N/A   Overcast
5:53 AM 53.6 °F 53.6 °F 100% 30.11 in 2.5 mi Calm Calm - N/A Rain Rain
7:53 AM 55.4 °F 53.6 °F 94% 30.12 in 2.5 mi ENE 3.5 mph - N/A Rain Light Rain
8:53 AM 55.4 °F 53.6 °F 94% 30.12 in 2.5 mi NE 3.5 mph - N/A Rain Light Rain
9:53 AM 55.4 °F 53.6 °F 94% 30.12 in 3.0 mi NNE 3.5 mph - N/A Rain Light Rain
10:53 AM 55.4 °F 53.6 °F 94% 30.11 in 3.0 mi Calm Calm - N/A Rain Rain
11:53 AM 57.2 °F 57.2 °F 100% 30.11 in 3.0 mi Calm Calm - N/A Rain Rain
12:53 PM 59.0 °F 57.2 °F 94% 30.09 in 3.0 mi Calm Calm - N/A Rain Light Rain
1:52 PM 59.0 °F 57.2 °F 94% 30.07 in 3.0 mi Calm Calm - N/A Rain Rain
2:52 PM 59.0 °F 57.2 °F 94% 30.05 in 5.0 mi Calm Calm - N/A Rain Rain
3:50 PM 59.0 °F 57.2 °F 94% 30.04 in 7.0 mi Calm Calm - N/A   Overcast
4:53 PM 59.0 °F 59.0 °F 100% 30.03 in 2.0 mi Calm Calm - N/A Rain Rain
5:53 PM 59.0 °F 57.2 °F 94% 30.03 in 2.0 mi Calm Calm - N/A Rain Rain
7:53 PM 59.0 °F 57.2 °F 94% 30.02 in 1.5 mi North 5.8 mph - N/A Rain Heavy Rain
8:53 PM 59.0 °F 57.2 °F 94% 30.02 in 2.0 mi North 5.8 mph - N/A Rain Rain
9:15 PM 59.0 °F 57.2 °F 94% 30.02 in 4.0 mi NE 4.6 mph - 0.08 in Rain Rain
9:35 PM 59.0 °F 57.2 °F 94% 30.03 in 7.0 mi NNE 3.5 mph - 0.09 in Rain Rain
9:55 PM 59.0 °F 57.2 °F 94% 30.03 in 3.0 mi North 3.5 mph - 0.01 in Rain Rain
10:15 PM 59.0 °F 57.2 °F 94% 30.03 in 4.0 mi Calm Calm - 0.03 in Rain Heavy Rain
10:35 PM 59.0 °F 57.2 °F 94% 30.04 in 4.0 mi Calm Calm - 0.06 in Rain Rain
10:55 PM 59.0 °F 57.2 °F 94% 30.04 in 5.0 mi Calm Calm - N/A Rain Rain
11:15 PM 59.0 °F 57.2 °F 94% 30.03 in 3.0 mi Calm Calm - 0.07 in Rain Heavy Rain
11:35 PM 59.0 °F 57.2 °F 94% 30.04 in 4.0 mi Calm Calm - 0.13 in Rain Heavy Rain
11:55 PM 59.0 °F 57.2 °F 94% 30.03 in 3.0 mi Calm Calm - 0.01 in Rain Heavy Rain